www.pogodaiklimat.ru

Погода и климат >> Архив погоды >> Мексика >> Мерида


АРХИВ ПОГОДЫ в Мериде

Время (UTC), дата Ветер
(напр.,м/с)
 
Видим.   Явления Облачность Т
(С)
Тd
(С)
f
(%)
Тe
(С)
Тes
(С)
Комфортность P
(гПа)
Po
(гПа)
Тmin
(С)
Tmax
(С)
R
(мм)
R24
(мм)
S
(см)
06 10.09 В 3 5000 м {морось} 5/0 2000 м
[]
+26.6 +25.6 94 +39 +39 очень
душно
1015.7 1014.5 +35.2
09 10.09 В 3 5000 м 3/1 600 м
[Cu hum Ci fib]
+26.2 +25.1 94 +38 +38 очень
душно
1015.0 1013.7
12 10.09 В 2 10 км 1/1 600 м
[Cu med, cong Cs]
+25.3 +23.7 91 +34 +34 очень
душно
1015.0 1013.8 +25.2 +35.2
15 10.09 В 2 10 км 8/0
[Cs]
+29.7 +27.6 89 +48 +57 опасность
перегрева
1016.4 1015.1
18 10.09 В 2 10 км 6/4 600 м
[Cu hum Cs]
+33.3 +29.0 78 +57 +68 опасность
перегрева
1015.7 1014.4 +24.8 +33.4
21 10.09 В 1 10 км 9/6 300 м
[Cb calv Ac trans Ci fib]
+31.4 +29.4 89 +56 +59 опасность
перегрева
1013.3 1012.0 1
00 11.09 В 4 10 км {морось} 10/8 600 м
[Sc As op]
+29.3 +25.2 79 +43 +43 опасность
перегрева
1014.8 1013.5 +25.2 +34.2 1
03 11.09 В 2 5000 м 8/8 600 м
[Sc diur, vesp]
+26.2 +24.2 89 +36 +36 очень
душно
1015.0 1013.8
06 11.09 В 2 5000 м 5/0
[Ac trans Cs]
+25.4 +24.4 94 +35 +35 очень
душно
1015.9 1014.1 +34.2
09 11.09 В 1 5000 м 4/0
[Cs]
+24.8 +24.4 98 +35 +35 очень
душно
1015.1 1013.9
12 11.09 В 1 10 км 3/0 2000 м
[Ac trans Ci fib]
+24.2 +24.0 99 +33 +33 очень
душно
1015.7 1014.4 +24.2 +34.2
15 11.09 В 3 10 км 8/8 600 м
[Cu med, cong]
+30.0 +26.5 82 +46 +48 опасность
перегрева
1016.3 1015.1
18 11.09 В 3 10 км 9/5 600 м
[Cu med, cong Cs]
+32.5 +26.9 72 +50 +57 опасность
перегрева
1014.4 1013.2 +24.2 +32.5
21 11.09 С 5 10 км 9/6 300 м
[Cb calv Ci fib]
+32.5 +23.3 58 +43 +45 опасность
перегрева
1012.1 1010.8
00 12.09 В 4 10 км {морось} 6/4 600 м
[Sc Ac trans]
+30.3 +26.3 79 +46 +46 опасность
перегрева
1012.9 1011.6 +24.2 +34.0 0.0
03 12.09 В 2 5000 м 4/1 600 м
[Cu hum Ac trans Ci fib]
+27.5 +26.3 93 +42 +42 опасность
перегрева
1014.7 1013.5
06 12.09 В 2 5000 м 3/0
[Ac trans]
+26.9 +25.6 93 +40 +40 очень
душно
1014.0 1012.7 +34.0
09 12.09 В 2 5000 м 3/0
[Ac trans Ci fib]
+26.3 +25.3 94 +38 +38 очень
душно
1012.4 1011.1
12 12.09 В 2 10 км 1/0
[Ci fib]
+25.8 +24.8 94 +37 +37 очень
душно
1013.0 1011.8 +25.7 +34.0
15 12.09 В 3 10 км 3/3 600 м
[Cu hum]
+30.4 +26.8 81 +47 +53 опасность
перегрева
1013.7 1012.4
18 12.09 В 3 10 км 8/5 600 м
[Cu hum Cs]
+33.9 +25.5 62 +49 +56 опасность
перегрева
1012.7 1011.5 +25.7 +33.9
21 12.09 С 3 10 км {морось} 9/4 600 м
[Cu hum Ac trans Ci fib]
+32.3 +26.4 71 +49 +52 опасность
перегрева
1010.6 1009.4 0.0
00 13.09 В 4 10 км {морось} 8/5 600 м
[Cu med, cong As op]
+30.6 +26.3 78 +47 +47 опасность
перегрева
1011.8 1010.6 +25.7 +34.4 0.0
03 13.09 В 2 5000 м 4/4 600 м
[Sc diur, vesp]
+26.3 +25.2 94 +38 +38 очень
душно
1013.6 1012.4
06 13.09 ЮВ 1 5000 м 4/1 600 м
[Cu hum Ci fib]
+25.4 +24.7 96 +36 +36 очень
душно
1013.3 1012.0 +34.4
09 13.09 З 1 5000 м 1/0
[Ac trans]
+24.4 +23.1 92 +32 +32 очень
душно
1011.9 1010.6
12 13.09 штиль 0 10 км 5/0 600 м
[Ac trans Ci fib]
+23.5 +22.8 96 +31 +31 очень
душно
1012.9 1011.6 +23.3 +34.4
15 13.09 СВ 2 10 км 5/1 600 м
[Cu hum Ac trans Ci fib]
+29.9 +26.7 83 +46 +53 опасность
перегрева
1014.2 1012.9
18 13.09 С 3 10 км 8/8 600 м
[Cu med, cong]
+32.4 +24.2 62 +45 +48 опасность
перегрева
1013.1 1011.8 +23.3 +33.0
21 13.09 С 2 10 км дождь 10/10 600 м
[Sc]
+27.0 +25.6 92 +40 +40 очень
душно
1011.8 1010.5 22
00 14.09 В 2 10 км слаб. морось {дождь} 10/10 600 м
[Sc]
+23.7 +23.4 98 +32 +32 очень
душно
1012.3 1011.0 +23.3 +33.0 39
03 14.09 ЮВ 1 5000 м в посл. час морось 9/9 600 м
[Sc]
+23.5 +23.3 99 +32 +32 очень
душно
1013.8 1012.6 5
06 14.09 З 1 5000 м {дождь} 3/0
[Ac trans Ci fib]
+23.5 +23.5 100 +32 +32 очень
душно
1013.5 1012.3 0.8
09 14.09 СЗ 1 5000 м 1/0
[Ci fib]
+23.2 +22.9 98 +32 +32 очень
душно
1011.6 1010.3
12 14.09 штиль 0 10 км 3/0 2000 м
[Ac cast Ci sp]
+22.6 +22.3 98 +30 +30 очень
душно
1013.1 1011.8 +22.5 +33.0
15 14.09 С 1 10 км 5/3 600 м
[Cu med, cong Ac trans Ci fib]
+29.1 +25.8 82 +43 +50 опасность
перегрева
1014.0 1012.8
18 14.09 В 1 10 км 6/4 600 м
[Cu hum Ac trans Ci fib]
+32.8 +27.7 75 +53 +64 опасность
перегрева
1013.1 1011.8 +22.5 +32.8
21 14.09 В 1 10 км слаб. морось 8/5 600 м
[Cu hum Ac trans Ci fib]
+32.2 +27.6 77 +52 +56 опасность
перегрева
1011.2 1009.9 0.0
00 15.09 В 3 10 км слаб. морось 10/10 600 м
[Sc]
+25.4 +24.5 95 +36 +36 очень
душно
1013.4 1012.2 +22.5 +33.5 26
03 15.09 В 1 5000 м слаб. морось 9/6 600 м
[Sc Ac trans]
+25.1 +24.4 96 +35 +35 очень
душно
1014.0 1012.8 8
12 15.09 Ю 1 10 км 8/8 600 м
[Sc]
+23.6 +23.0 96 +31 +31 очень
душно
1013.0 1011.8 +23.4 +33.5
15 15.09 ЮВ 1 10 км 6/1 600 м
[Cu hum Ci fib]
+28.4 +26.5 89 +43 +53 опасность
перегрева
1014.3 1013.0
18 15.09 ЮЗ 1 10 км 9/5 600 м
[Cu hum Ci fib]
+32.7 +28.1 77 +54 +63 опасность
перегрева
1013.0 1011.8 +23.4 +33.0
21 15.09 С 2 10 км 9/5 300 м
[Cb calv Ci fib]
+32.4 +25.6 67 +47 +51 опасность
перегрева
1011.5 1010.2
00 16.09 С 2 10 км {дождь} 8/5 600 м
[Cu med, cong As op]
+29.2 +25.6 81 +43 +43 опасность
перегрева
1012.8 1011.6 +23.4 +33.7 14
03 16.09 С 1 5000 м 5/5 600 м
[Cu hum]
+27.6 +27.0 97 +43 +43 опасность
перегрева
1014.2 1012.9
06 16.09 ЮВ 2 5000 м 3/3 600 м
[Sc]
+27.3 +26.3 94 +41 +41 опасность
перегрева
1014.5 1013.2 +33.7
09 16.09 ЮВ 1 5000 м 4/0
[Ac trans]
+25.5 +25.5 100 +37 +37 очень
душно
1013.9 1012.7
12 16.09 ЮВ 1 10 км 5/0
[Cs]
+25.1 +25.0 99 +36 +36 очень
душно
1015.0 1013.8 +24.8 +33.7
15 16.09 ЮВ 2 10 км 10/3 600 м
[Cu hum Cs]
+29.2 +27.2 89 +46 +52 опасность
перегрева
1016.0 1014.7
18 16.09 В 1 10 км 9/4 600 м
[Cu hum Cs]
+33.0 +28.6 78 +55 +67 опасность
перегрева
1014.2 1012.9 +24.8 +33.0
21 16.09 СВ 1 10 км 8/5 600 м
[Cu hum Ci fib]
+34.6 +29.6 75 +60 +65 опасность
перегрева
1011.9 1010.7
00 17.09 СВ 4 10 км 10/3 600 м
[Cu hum As op]
+30.5 +25.9 76 +45 +45 опасность
перегрева
1012.5 1011.2 +24.8 +34.6

 

Местоположение метеостанции Мерида (Мексика): широта 20.98 долгота -89.65 высота над уровнем моря 9 м.

В архиве по умолчанию представлена погода в Мериде за последнюю неделю. Архивные данные за месяц целиком и за предыдущие месяцы, начиная с января 2011 года, Вы можете получить, выбрав интересующий диапазон дат из раскрывающегося списка и нажав кнопку "Ввод!".


*Определитесь, кто Вы:
робот инопланетянин человек

Внимание! Время в таблицах - всемирное. Для получения местного времени необходимо прибавить поправку, которая равна -6 ч.

Смотрите также архив погоды в соседних городах и на ближайших метеорологических станциях:

Погода в Мериде 2 (Мексика) (6 км)
Погода в Прогресо (Мексика) (36 км)
Погода в Вальядолиде (Мексика) (154 км)
Погода в Кампече (Мексика) (157 км)
Погода в Фелипе-Каррильо-Пуэрто (Мексика) (231 км)
Погода в Четумале (Мексика) (312 км)
Погода в Белизе (Белиз) (409 км)
Погода во Флоресе (Гватемала) (452 км)
Погода в Вильяэрмосе (Мексика) (479 км)
Погода в Кабо-Сан-Антонио (Куба) (497 км)

Пояснения к столбцам:

Ветер - указаны скорость ветра в м/с - средняя за 10 мин, порывы в срок и между сроками (в фигурных скобках) и направление, откуда дует ветер: С - северный, СВ - северо-восточный, В - восточный, ЮВ - юго-восточный, Ю - южный, ЮЗ - юго-западный, З - западный, СЗ - северо-западный.
Видимость - горизонтальная дальность видимости в метрах или километрах. При видимости от 1 до 10 км при отсутствии осадков обычно наблюдается дымка, при ухудшении видимости до 1 км и менее - туман. В сухую погоду видимость может ухудшаться дымом, пылью или мглою.
Явления - указаны атмосферные явления, наблюдавшиеся в срок или в последний час перед сроком; фигурными скобками обозначены явления, наблюдавшиеся между сроками (за 1-3 часа до срока); квадратными скобками обозначены град или гололедные отложения с указанием их диаметра в мм.
Облачность - указаны через наклонную черту общая и нижняя облачность в баллах и высота нижней границы облаков в метрах; квадратными скобками обозначены формы облаков: Ci - перистые, Cs - перисто-слоистые, Cc - перисто-кучевые, Ac - высококучевые, As - высокослоистые, Sc - слоисто-кучевые, Ns - слоисто-дождевые, Cu - кучевые, Cb - кучево-дождевые. Подробнее классификацию облаков см. в Атласе облаков (PDF).
T - Температура воздуха - температура, измеренная на высоте 2 м над землей.
Td - Температура точки росы - температура, при понижении до которой содержащийся в воздухе водяной пар достигнет насыщения.
f - Относительная влажность воздуха - влажноcть воздуха, измеренная на высоте 2 м над землей.
Te - Эффективная температура - температура, которую ощущает одетый по сезону человек в тени. Характеристика душности погоды. При расчете учитывается влияние влажности воздуха и скорости ветра на теплоощущения человека.
Tes - Эффективная температура на солнце - температура, которую ощущает человек, с поправкой на солнечный нагрев. Характеристика знойности погоды. Зависит от высоты солнца над горизонтом, облачности и скорости ветра. Ночью, в пасмурную погоду, а также при ветре 12 м/с и более поправка равна нулю.
P - Атмосферное давление - приведенное к уровню моря атмосферное давление.
Po - Атмосферное давление - измеренное на уровне метеостанции атмосферное давление.
Tmin - Минимальная температура - минимум температуры воздуха на высоте 2 м над землей.
Tmax - Максимальная температура - максимум температуры воздуха на высоте 2 м над землей.
R - Количество осадков - Количество выпавших осадков за период времени, мм. При наведении курсора мыши на число - период времени, за который выпало указанное количество осадков.
R24 - Количество осадков - Количество выпавших осадков за 24 часа, мм.
S - Снежный покров - Высота снежного покрова, см. При наведении курсора мыши на число - состояние снежного покрова и степень покрытия местности в баллах.